SCP
0 0 0 0 0 0 0 0 0 0 0 0 0 0 0 0 0 0 1 0 0 0 0 0 0 0 0 0 0 0 0 0 0 0 1 1 1 1
0 0 0 0 0 0 0 0 0 0 0 0 0 0 1 1 0 0 0 0 0 0 0 0 0 0 0 0 0 0 0 0 0 0 0 0 1 1
0 0 0 0 0 0 0 0 0 0 0 0 0 1 1 1 1 1 0 0 0 0 0 0 0 0 0 0 0 0 0 0 0 0 0 0 0 0
0 0 0 0 0 0 0 0 0 0 0 0 1 1 1 1 1 1 0 0 0 0 0 0 0 0 0 0 0 0 0 0 0 0 0 0 0 0
0 0 0 0 0 0 0 0 0 0 0 1 1 1 1 1 1 1 0 0 0 0 0 0 0 0 0 0 0 0 0 0 0 0 0 0 0 0
0 0 0 0 0 0 0 0 0 0 0 1 1 1 1 1 1 1 1 0 0 0 0 0 0 0 0 0 0 0 0 0 0 0 0 0 0 0
0 0 0 0 0 0 0 0 0 0 0 0 1 1 1 1 1 1 1 0 0 0 0 0 0 0 0 0 0 0 0 0 0 0 0 0 0 0
0 0 0 0 0 0 0 0 0 0 0 0 1 1 1 1 1 1 1 0 0 0 0 0 0 0 0 0 0 0 0 0 0 0 0 0 0 0
0 0 0 0 0 0 0 0 0 0 0 0 0 1 1 1 1 1 1 0 0 0 0 0 0 0 0 0 0 0 0 0 0 0 0 0 0 0
0 0 0 0 0 0 0 0 0 0 0 0 0 0 1 1 1 1 1 0 0 0 0 0 0 0 0 0 0 0 0 0 0 0 0 0 0 0
0 0 0 0 0 0 0 0 0 0 0 0 0 0 0 0 0 1 1 0 0 0 0 0 0 0 0 0 0 0 0 0 0 0 0 0 0 0
0 0 0 0 0 0 0 0 0 0 0 0 0 0 0 0 0 0 1 0 0 0 0 0 0 0 0 0 0 0 0 0 0 0 0 0 0 0
0 0 0 0 0 0 0 0 0 0 0 0 0 0 0 0 0 0 1 1 0 0 0 0 0 0 0 0 0 0 0 0 0 0 0 0 0 0
0 0 0 0 0 0 0 0 0 0 0 0 0 0 0 0 1 1 1 0 0 0 0 0 0 0 0 0 0 0 0 0 0 0 0 0 0 0
0 0 0 0 0 0 0 0 0 0 0 0 0 0 0 0 1 1 0 0 0 0 0 0 0 0 0 0 0 0 0 0 0 0 0 0 0 0
0 0 0 0 0 0 0 0 0 0 0 0 0 0 0 0 1 1 0 0 0 0 0 0 0 0 0 0 0 0 0 0 0 0 0 0 0 0
0 0 0 0 0 0 0 0 0 0 0 0 0 0 0 0 1 1 0 0 0 0 0 0 0 0 0 0 0 0 0 0 0 0 0 0 0 0
0 0 0 0 0 0 0 0 0 0 0 0 0 0 0 0 0 1 0 0 0 0 0 0 0 0 0 0 0 0 0 0 0 0 0 0 0 0
0 0 0 0 0 0 0 0 0 0 0 0 0 0 0 0 0 0 0 0 0 0 0 0 0 0 0 0 0 0 0 0 0 0 0 0 0 0
0 0 0 0 0 0 0 0 0 0 0 0 0 0 0 0 0 0 0 0 0 0 0 0 0 0 0 0 0 0 0 0 0 0 0 0 0 0
0 0 0 0 0 0 0 0 0 0 0 0 0 0 0 0 0 0 0 0 0 0 0 0 0 0 0 0 0 0 0 0 0 0 0 0 0 0
0 0 0 0 0 0 0 0 0 0 0 0 0 0 0 0 0 0 0 0 0 0 0 0 0 0 0 0 0 0 0 0 0 0 0 0 0 0
0 0 0 0 0 0 0 0 0 0 0 0 0 0 0 0 0 0 0 0 0 0 0 0 0 0 0 0 0 0 0 0 0 0 0 0 0 0
Wind_Speed
5 5 4 3 3 2 2 1 1 2 3 3 2 2 3 4 8 7 6 10 13 13 13 13 13 13 14 14 14 15 15 15 15 16 16 17 18 18
5 5 5 4 3 3 2 2 2 3 3 3 3 2 3 4 6 5 5 9 9 10 10 11 11 12 12 13 13 14 14 14 14 14 14 14 14 15
6 6 7 5 4 3 3 2 3 2 4 3 1 1 2 5 5 5 5 5 4 7 7 8 9 10 11 11 12 13 13 13 13 13 13 13 12 12
7 6 7 6 5 4 3 4 3 3 3 4 2 1 2 6 7 7 5 5 4 5 6 6 6 8 9 10 10 11 11 11 11 11 11 11 11 10
7 7 7 6 6 5 5 4 4 4 3 3 2 2 1 4 6 6 7 5 5 6 7 6 5 6 7 7 8 9 9 10 10 10 10 10 9 9
8 8 8 7 8 7 6 6 5 4 4 3 3 2 2 4 6 7 5 3 3 4 6 7 8 8 7 7 8 9 9 9 10 10 10 10 10 9
8 8 8 11 12 9 6 6 6 5 4 4 4 3 3 6 6 5 7 5 3 2 4 4 4 5 5 7 8 10 10 11 11 12 12 12 12 11
8 8 8 10 13 14 14 13 11 8 7 5 4 5 5 6 5 7 8 7 4 3 4 3 3 5 4 4 7 10 11 12 12 12 13 13 13 12
9 8 10 10 10 7 10 13 13 14 12 7 7 6 6 6 8 9 9 7 4 6 5 3 3 4 4 5 9 10 12 12 12 13 14 14 13 13
10 10 10 9 9 8 6 6 7 8 10 8 6 6 5 6 8 8 9 7 6 4 4 4 3 3 4 5 7 9 11 12 12 13 14 14 14 13
10 10 10 10 13 13 8 7 6 6 8 10 9 8 8 9 8 8 9 10 7 3 2 4 4 3 3 3 5 9 10 11 12 13 14 15 15 13
7 8 12 12 13 13 8 7 8 6 6 6 6 7 7 8 12 10 11 11 8 5 4 5 5 5 4 2 3 4 5 8 10 12 13 13 12 8
6 5 6 11 13 13 10 7 9 7 6 7 6 6 5 6 8 8 8 9 9 5 8 7 6 4 5 4 2 2 3 3 4 5 8 10 10 8
5 4 5 10 11 11 9 9 11 8 5 5 5 6 6 7 7 7 7 6 5 6 11 9 6 7 7 5 4 3 2 3 3 3 3 6 7 8
4 6 7 8 8 7 10 11 8 5 5 5 6 6 6 6 6 6 6 6 6 7 10 5 8 9 6 6 7 6 4 4 4 4 3 3 3 4
3 4 4 5 5 5 6 6 5 5 5 5 5 5 4 5 6 6 6 7 6 5 5 5 9 11 6 5 7 7 5 8 7 5 4 3 3 4
2 1 1 1 2 3 3 4 4 4 4 4 4 4 5 6 6 6 6 6 6 8 7 5 5 4 5 7 7 7 7 6 7 7 5 4 3 4
2 2 2 2 2 3 4 4 4 5 5 5 5 5 5 6 6 6 7 7 7 7 8 8 8 6 4 3 3 9 8 6 7 7 5 4 4 4
2 3 3 3 3 3 4 4 5 5 5 5 5 5 5 5 5 7 8 8 7 8 9 10 10 8 7 6 4 7 9 9 9 7 6 4 5 6
3 4 4 4 3 4 4 4 4 4 4 5 5 5 5 5 6 7 8 9 8 8 8 8 9 9 8 8 7 6 10 10 9 9 7 3 3 4
4 4 5 4 4 4 4 4 5 5 5 5 6 6 6 6 6 7 7 11 9 9 11 10 8 8 6 7 6 5 6 10 10 8 9 6 4 4
5 5 5 5 5 5 5 4 4 5 5 5 6 6 6 6 7 8 8 9 9 8 9 7 8 8 5 6 7 7 8 7 7 9 11 9 7 8
6 5 5 5 5 5 5 5 6 5 5 6 6 6 7 6 6 7 8 9 9 9 9 9 8 6 5 5 6 7 9 8 6 5 4 4 8 10
Wind_Direction
268 268 262 254 242 237 235 228 233 264 266 262 258 218 186 172 177 174 173 188 191 193 196 198 201 203 205 208 210 210 211 212 213 214 215 215 216 217
267 267 265 257 251 237 224 223 223 229 253 251 243 229 176 160 151 144 150 157 166 178 186 194 199 203 207 209 210 210 209 209 210 210 212 213 212 214
277 268 263 258 252 246 228 216 220 218 251 269 267 235 146 145 125 114 112 114 126 155 174 189 197 203 206 209 209 208 206 206 206 205 206 206 207 210
269 267 265 263 251 243 232 225 218 216 230 259 266 228 160 153 137 126 113 107 102 118 140 161 180 194 200 203 203 202 201 200 199 199 199 199 199 201
255 255 257 256 253 243 233 229 222 226 220 235 252 247 150 143 129 113 107 105 102 105 105 112 132 158 175 182 184 185 185 185 185 186 186 183 181 178
254 249 247 244 243 237 232 226 217 217 220 228 231 236 175 151 139 136 131 117 106 94 88 86 94 98 117 139 153 156 157 157 156 155 153 150 147 143
258 252 249 250 246 238 228 216 207 206 209 220 219 210 188 167 161 150 143 131 99 107 102 78 78 75 73 94 114 129 134 136 136 135 133 130 128 127
253 252 256 263 257 248 238 223 206 199 201 208 214 210 204 179 159 156 150 149 145 147 111 78 67 74 53 63 102 115 120 124 126 126 125 124 122 120
242 244 256 257 251 239 238 232 222 214 202 194 208 211 204 185 168 169 168 156 141 147 119 92 63 68 47 65 96 109 114 117 120 121 120 118 117 115
238 235 236 244 247 234 229 229 222 216 209 202 203 211 211 195 182 172 157 126 103 107 103 110 93 72 52 52 76 103 113 116 119 120 119 116 113 110
240 237 232 234 235 226 218 218 220 225 218 206 198 198 198 192 174 151 152 152 145 139 107 116 122 98 66 47 61 89 106 116 120 121 120 117 113 105
245 240 235 232 228 216 208 205 212 214 198 194 195 197 198 196 185 178 169 166 151 148 156 125 133 130 107 65 59 75 91 103 115 121 124 123 119 111
245 238 233 228 224 217 204 204 211 200 189 184 184 188 193 197 195 192 182 172 162 155 160 141 138 130 122 126 110 100 109 118 111 121 129 129 128 126
243 234 229 227 222 215 207 211 212 199 183 177 181 190 196 197 194 191 186 178 158 150 160 150 140 149 135 133 143 134 129 137 135 139 140 137 126 119
242 244 236 224 215 209 206 200 194 186 178 180 189 195 195 187 177 177 173 149 124 139 157 155 144 147 139 142 147 149 150 170 170 158 160 158 149 140
264 265 247 212 198 187 182 182 181 183 177 180 188 188 174 174 177 173 173 161 143 136 146 146 152 150 139 141 148 156 158 164 171 173 162 165 163 161
280 265 225 174 169 166 164 168 180 183 184 176 174 175 175 178 181 173 170 162 159 158 153 138 125 111 116 141 147 157 152 153 162 163 158 163 180 178
265 241 233 210 193 181 176 177 189 193 189 181 175 175 179 179 179 174 172 169 165 161 157 150 142 123 97 54 137 158 160 159 157 160 153 155 179 188
239 236 235 226 210 194 186 185 192 195 186 181 181 180 176 174 174 177 175 171 168 163 160 158 161 155 155 165 184 175 166 161 160 167 172 160 174 185
228 232 233 230 223 207 199 198 197 187 181 184 186 183 176 172 174 178 176 173 165 158 158 166 175 176 175 164 157 176 176 165 166 172 169 145 133 151
235 235 232 227 224 219 209 200 192 189 185 183 188 185 178 171 175 177 174 169 164 165 173 180 176 151 113 114 122 141 170 179 169 167 162 150 145 148
241 239 238 231 223 219 212 203 197 192 187 186 186 184 180 177 177 176 173 172 173 171 172 160 147 150 154 161 158 153 156 163 172 170 168 166 161 176
241 240 236 230 224 214 206 201 198 196 192 190 184 181 178 177 178 176 174 172 169 165 160 156 157 162 166 158 150 148 153 158 157 156 172 190 187 187